Weather in Valkeakoski

Finland     61°15′56″N   24°01′49″E
temp.,
°C
wind,
m/s
gust,
m/s
humid.,
%
clouds,
%
prec.,
mm/h
press.,
hPa
HPBL,
m
21 april, wed
wed2100:00+4s2264100 0.0 101438
03:00+3e246812 0.0 101282
06:00+2ese268495 0.0 1010111
09:00+5se357266 0.0 1008268
12:00+9se345489 0.0 10061098
15:00+9se235093 0.0 10041120
18:00+10se224962 0.0 10021020
21:00+7sse116197 0.0 100111
22 april, thu
thu2200:00+5ssw367879 0.0 1000137
03:00+3s228655 0.0 100029
06:00+2se228787 0.0 100028
09:00+5se247388 0.0 1000249
12:00+9sse345295 0.0 1001984
15:00+8s256473 0.3 10021063
18:00+9s55365 0.1 10021437
21:00+5s34584 0.1 100362
23 april, fri
fri2300:00+3wsw117882 0.0 100310
03:00+2e118035 0.0 100310
06:00+1s11835 0.0 100310
09:00+4s227232 0.0 1003420
12:00+6sse226483 0.4 10031024
15:00+7s3365100 1.3 1003935
18:00+4sw3591100 3.6 1004519
21:00+2ssw1297100 12.7 1005163
24 april, sat
sat2400:00+2sw2498100 0.2 1005289
03:00+1ssw1199100 0.4 1005100
06:00+1e22100100 0.7 1006108
09:00+2e3593100 1.3 1007393
12:00+5ne3470100 0.1 10091079
15:00+5n357120 0.3 1009705
18:00+5nnw577753 0.9 1010777
21:00+3n51187100 1.7 1010605
25 april, sun
sun2500:00+2nnw51197100 0.4 1009764
03:00+2nnw61397100 2.5 1008890
06:00+1nnw71497100 0.6 1008994
09:00+1nnw71396100 1.3 1007897
12:00+1n61296100 0.8 1008656
15:00+1n51297100 1.8 1009607
18:00+2n61393100 0.7 1010549
21:00+2n61394100 0.8 1012587